Time,TemperatureF,DewpointF,PressureIn,WindDirection,WindDirectionDegrees,WindSpeedMPH,WindSpeedGustMPH,Humidity,HourlyPrecipIn,Conditions,Clouds,dailyrainin,SolarRadiationWatts/m^2,SoftwareType,DateUTC
2013-01-12 00:02:00,26.4,18.0,30.38,SE,143,6.0,18.0,70,0.00,,,0.00,0.0,meteohub,2013-01-12 08:02:00,
2013-01-12 00:07:00,26.4,17.6,30.38,East,100,12.0,19.0,69,0.00,,,0.00,0.0,meteohub,2013-01-12 08:07:00,
2013-01-12 00:12:00,26.4,17.6,30.38,SE,134,14.0,19.0,69,0.00,,,0.00,0.0,meteohub,2013-01-12 08:12:00,
2013-01-12 00:17:00,26.4,18.0,30.38,ESE,123,16.0,19.0,70,0.00,,,0.00,0.0,meteohub,2013-01-12 08:17:00,
2013-01-12 00:22:00,26.4,18.0,30.38,ESE,117,8.0,19.0,70,0.00,,,0.00,0.0,meteohub,2013-01-12 08:22:00,
2013-01-12 00:27:00,26.4,18.3,30.38,ESE,117,13.0,21.0,71,0.00,,,0.00,0.0,meteohub,2013-01-12 08:27:00,
2013-01-12 00:32:00,26.2,18.1,30.38,ENE,74,4.0,21.0,71,0.00,,,0.00,0.0,meteohub,2013-01-12 08:32:00,
2013-01-12 00:37:00,26.2,18.1,30.38,ESE,106,9.0,21.0,71,0.00,,,0.00,0.0,meteohub,2013-01-12 08:37:00,
2013-01-12 00:42:00,26.2,17.8,30.38,ESE,109,11.0,20.0,70,0.00,,,0.00,0.0,meteohub,2013-01-12 08:42:00,
2013-01-12 00:47:00,26.1,17.6,30.38,East,93,13.0,26.0,70,0.00,,,0.00,0.0,meteohub,2013-01-12 08:47:00,
2013-01-12 00:52:00,26.1,17.6,30.38,SSE,150,13.0,26.0,70,0.00,,,0.00,0.0,meteohub,2013-01-12 08:52:00,
2013-01-12 00:57:00,26.1,17.6,30.38,SSE,150,9.0,26.0,70,0.00,,,0.00,0.0,meteohub,2013-01-12 08:57:00,
2013-01-12 01:02:00,26.1,17.2,30.38,ESE,120,7.0,23.0,69,0.00,,,0.00,0.0,meteohub,2013-01-12 09:02:00,
2013-01-12 01:07:00,26.1,17.6,30.38,ESE,120,7.0,23.0,70,0.00,,,0.00,0.0,meteohub,2013-01-12 09:07:00,
2013-01-12 01:12:00,26.1,17.6,30.38,SSW,209,3.0,23.0,70,0.00,,,0.00,0.0,meteohub,2013-01-12 09:12:00,
2013-01-12 01:17:00,25.9,17.1,30.39,SE,144,7.0,22.0,69,0.00,,,0.00,0.0,meteohub,2013-01-12 09:17:00,
2013-01-12 01:22:00,25.9,17.1,30.38,ESE,123,13.0,25.0,69,0.00,,,0.00,0.0,meteohub,2013-01-12 09:22:00,
2013-01-12 01:27:00,25.9,17.1,30.38,ESE,113,17.0,28.0,69,0.00,,,0.00,0.0,meteohub,2013-01-12 09:27:00,
2013-01-12 01:32:00,25.9,17.1,30.38,ESE,110,14.0,28.0,69,0.00,,,0.00,0.0,meteohub,2013-01-12 09:32:00,
2013-01-12 01:37:00,25.9,16.7,30.38,ESE,119,15.0,28.0,68,0.00,,,0.00,0.0,meteohub,2013-01-12 09:37:00,
2013-01-12 01:42:00,25.7,16.9,30.39,East,94,10.0,23.0,69,0.00,,,0.00,0.0,meteohub,2013-01-12 09:42:00,
2013-01-12 01:47:00,25.7,16.9,30.39,East,97,10.0,22.0,69,0.00,,,0.00,0.0,meteohub,2013-01-12 09:47:00,
2013-01-12 01:52:00,25.7,16.9,30.39,SE,132,4.0,22.0,69,0.00,,,0.00,0.0,meteohub,2013-01-12 09:52:00,
2013-01-12 01:57:00,25.5,16.7,30.39,ESE,107,11.0,20.0,69,0.00,,,0.00,0.0,meteohub,2013-01-12 09:57:00,
2013-01-12 02:02:00,25.7,16.9,30.39,ESE,107,7.0,19.0,69,0.00,,,0.00,0.0,meteohub,2013-01-12 10:02:00,
2013-01-12 02:07:00,25.5,17.1,30.40,SSE,152,6.0,20.0,70,0.00,,,0.00,0.0,meteohub,2013-01-12 10:07:00,
2013-01-12 02:12:00,25.5,16.7,30.40,ESE,118,9.0,20.0,69,0.00,,,0.00,0.0,meteohub,2013-01-12 10:12:00,
2013-01-12 02:17:00,25.5,16.7,30.40,SE,130,11.0,23.0,69,0.00,,,0.00,0.0,meteohub,2013-01-12 10:17:00,
2013-01-12 02:22:00,25.5,16.7,30.39,ESE,119,9.0,23.0,69,0.00,,,0.00,0.0,meteohub,2013-01-12 10:22:00,
2013-01-12 02:27:00,25.3,16.3,30.39,ESE,109,11.0,23.0,68,0.00,,,0.00,0.0,meteohub,2013-01-12 10:27:00,
2013-01-12 02:32:00,25.3,16.3,30.40,SE,125,7.0,21.0,68,0.00,,,0.00,0.0,meteohub,2013-01-12 10:32:00,
2013-01-12 02:38:00,25.5,16.7,30.40,ENE,67,12.0,21.0,69,0.00,,,0.00,0.0,meteohub,2013-01-12 10:38:00,
2013-01-12 02:43:00,25.3,16.3,30.40,East,80,13.0,21.0,68,0.00,,,0.00,0.0,meteohub,2013-01-12 10:43:00,
2013-01-12 02:48:00,25.5,16.5,30.40,East,94,5.0,20.0,68,0.00,,,0.00,0.0,meteohub,2013-01-12 10:48:00,
2013-01-12 02:53:00,25.3,16.3,30.40,East,80,12.0,22.0,68,0.00,,,0.00,0.0,meteohub,2013-01-12 10:53:00,
2013-01-12 02:58:00,25.3,16.3,30.40,ENE,65,9.0,22.0,68,0.00,,,0.00,0.0,meteohub,2013-01-12 10:58:00,
2013-01-12 03:03:00,25.3,16.3,30.40,SE,127,10.0,22.0,68,0.00,,,0.00,0.0,meteohub,2013-01-12 11:03:00,
2013-01-12 03:08:00,25.3,16.5,30.40,SE,127,11.0,22.0,69,0.00,,,0.00,0.0,meteohub,2013-01-12 11:08:00,
2013-01-12 03:13:00,25.3,16.5,30.40,ESE,112,5.0,22.0,69,0.00,,,0.00,0.0,meteohub,2013-01-12 11:13:00,
2013-01-12 03:18:00,25.3,16.5,30.40,ESE,109,10.0,22.0,69,0.00,,,0.00,0.0,meteohub,2013-01-12 11:18:00,
2013-01-12 03:23:00,25.3,16.9,30.40,East,88,13.0,22.0,70,0.00,,,0.00,0.0,meteohub,2013-01-12 11:23:00,
2013-01-12 03:28:00,25.3,16.9,30.40,SE,124,16.0,22.0,70,0.00,,,0.00,0.0,meteohub,2013-01-12 11:28:00,
2013-01-12 03:33:00,25.3,16.5,30.40,SE,132,11.0,21.0,69,0.00,,,0.00,0.0,meteohub,2013-01-12 11:33:00,
2013-01-12 03:38:00,25.3,16.5,30.40,SE,145,11.0,21.0,69,0.00,,,0.00,0.0,meteohub,2013-01-12 11:38:00,
2013-01-12 03:43:00,25.3,16.5,30.40,SE,140,9.0,21.0,69,0.00,,,0.00,0.0,meteohub,2013-01-12 11:43:00,
2013-01-12 03:48:00,25.3,16.9,30.40,ESE,119,17.0,22.0,70,0.00,,,0.00,0.0,meteohub,2013-01-12 11:48:00,
2013-01-12 03:53:00,25.3,16.9,30.40,ESE,120,16.0,22.0,70,0.00,,,0.00,0.0,meteohub,2013-01-12 11:53:00,
2013-01-12 03:58:00,25.3,16.5,30.40,ESE,116,24.0,26.0,69,0.00,,,0.00,0.0,meteohub,2013-01-12 11:58:00,
2013-01-12 04:03:00,25.3,16.9,30.40,SE,132,23.0,26.0,70,0.00,,,0.00,0.0,meteohub,2013-01-12 12:03:00,
2013-01-12 04:08:00,25.3,16.9,30.40,SE,132,13.0,26.0,70,0.00,,,0.00,0.0,meteohub,2013-01-12 12:08:00,
2013-01-12 04:13:00,25.2,16.7,30.40,East,94,11.0,26.0,70,0.00,,,0.00,0.0,meteohub,2013-01-12 12:13:00,
2013-01-12 04:18:00,25.2,16.7,30.40,ESE,121,16.0,24.0,70,0.00,,,0.00,0.0,meteohub,2013-01-12 12:18:00,
2013-01-12 04:23:00,25.3,16.5,30.40,ESE,122,12.0,25.0,69,0.00,,,0.00,0.0,meteohub,2013-01-12 12:23:00,
2013-01-12 04:28:00,25.3,16.5,30.40,ESE,114,18.0,25.0,69,0.00,,,0.00,0.0,meteohub,2013-01-12 12:28:00,
2013-01-12 04:33:00,25.2,16.3,30.40,SSE,162,5.0,25.0,69,0.00,,,0.00,0.0,meteohub,2013-01-12 12:33:00,
2013-01-12 04:38:00,25.2,16.3,30.40,ESE,121,16.0,25.0,69,0.00,,,0.00,0.0,meteohub,2013-01-12 12:38:00,
2013-01-12 04:43:00,25.2,16.3,30.40,East,93,17.0,25.0,69,0.00,,,0.00,0.0,meteohub,2013-01-12 12:43:00,
2013-01-12 04:48:00,25.2,16.3,30.40,ESE,117,25.0,28.0,69,0.00,,,0.00,0.0,meteohub,2013-01-12 12:48:00,
2013-01-12 04:54:00,25.2,16.3,30.40,ESE,107,17.0,28.0,69,0.00,,,0.00,0.0,meteohub,2013-01-12 12:54:00,
2013-01-12 04:59:00,25.3,16.5,30.39,SE,140,12.0,27.0,69,0.00,,,0.00,0.0,meteohub,2013-01-12 12:59:00,
2013-01-12 05:04:00,25.3,16.3,30.39,ESE,114,22.0,27.0,68,0.00,,,0.00,0.0,meteohub,2013-01-12 13:04:00,
2013-01-12 05:09:00,25.2,16.3,30.39,ESE,115,17.0,27.0,69,0.00,,,0.00,0.0,meteohub,2013-01-12 13:09:00,
2013-01-12 05:14:00,25.2,16.2,30.40,SSE,155,9.0,27.0,68,0.00,,,0.00,0.0,meteohub,2013-01-12 13:14:00,
2013-01-12 05:19:00,25.2,16.2,30.40,ENE,74,6.0,31.0,68,0.00,,,0.00,0.0,meteohub,2013-01-12 13:19:00,
2013-01-12 05:24:00,25.2,16.3,30.40,East,88,6.0,31.0,69,0.00,,,0.00,0.0,meteohub,2013-01-12 13:24:00,
2013-01-12 05:29:00,25.2,16.2,30.40,SE,126,3.0,31.0,68,0.00,,,0.00,0.0,meteohub,2013-01-12 13:29:00,
2013-01-12 05:34:00,25.2,16.2,30.40,SSE,153,12.0,24.0,68,0.00,,,0.00,0.0,meteohub,2013-01-12 13:34:00,
2013-01-12 05:39:00,25.2,16.3,30.40,South,190,9.0,27.0,69,0.00,,,0.00,0.0,meteohub,2013-01-12 13:39:00,
2013-01-12 05:44:00,25.3,16.3,30.40,ESE,109,6.0,27.0,68,0.00,,,0.00,0.0,meteohub,2013-01-12 13:44:00,
2013-01-12 05:49:00,25.2,16.2,30.40,SE,129,7.0,29.0,68,0.00,,,0.00,0.0,meteohub,2013-01-12 13:49:00,
2013-01-12 05:54:00,25.2,16.2,30.40,ESE,102,14.0,30.0,68,0.00,,,0.00,0.0,meteohub,2013-01-12 13:54:00,
2013-01-12 05:59:00,25.3,16.3,30.40,SE,136,10.0,30.0,68,0.00,,,0.00,0.0,meteohub,2013-01-12 13:59:00,
2013-01-12 06:04:00,25.2,15.8,30.40,SE,140,16.0,30.0,67,0.00,,,0.00,0.0,meteohub,2013-01-12 14:04:00,
2013-01-12 06:09:00,25.2,15.8,30.40,ESE,122,19.0,30.0,67,0.00,,,0.00,0.0,meteohub,2013-01-12 14:09:00,
2013-01-12 06:14:00,25.2,15.8,30.40,East,82,27.0,28.0,67,0.00,,,0.00,0.0,meteohub,2013-01-12 14:14:00,
2013-01-12 06:19:00,25.0,15.6,30.40,SE,126,27.0,32.0,67,0.00,,,0.00,0.0,meteohub,2013-01-12 14:19:00,
2013-01-12 06:24:00,25.0,15.3,30.40,ENE,71,14.0,32.0,66,0.00,,,0.00,0.0,meteohub,2013-01-12 14:24:00,
2013-01-12 06:29:00,25.0,15.3,30.39,ESE,113,13.0,32.0,66,0.00,,,0.00,0.0,meteohub,2013-01-12 14:29:00,
2013-01-12 06:34:00,25.0,15.3,30.40,NNW,345,9.0,32.0,66,0.00,,,0.00,0.0,meteohub,2013-01-12 14:34:00,
2013-01-12 06:39:00,25.0,14.5,30.40,SE,128,11.0,32.0,64,0.00,,,0.00,0.0,meteohub,2013-01-12 14:39:00,
2013-01-12 06:44:00,24.8,15.1,30.40,East,101,17.0,32.0,66,0.00,,,0.00,0.0,meteohub,2013-01-12 14:44:00,
2013-01-12 06:49:00,24.8,15.4,30.40,SE,146,6.0,30.0,67,0.00,,,0.00,0.0,meteohub,2013-01-12 14:49:00,
2013-01-12 06:55:00,24.8,15.4,30.40,ESE,110,29.0,30.0,67,0.00,,,0.00,0.0,meteohub,2013-01-12 14:55:00,
2013-01-12 07:00:00,25.0,15.3,30.40,SE,145,22.0,31.0,66,0.00,,,0.00,0.0,meteohub,2013-01-12 15:00:00,
2013-01-12 07:05:00,25.0,16.0,30.42,East,90,6.0,33.0,68,0.00,,,0.00,0.0,meteohub,2013-01-12 15:05:00,
2013-01-12 07:10:00,24.8,15.1,30.41,East,90,9.0,40.0,66,0.00,,,0.00,0.0,meteohub,2013-01-12 15:10:00,
2013-01-12 07:15:00,25.0,15.3,30.41,ENE,71,17.0,40.0,66,0.00,,,0.00,0.0,meteohub,2013-01-12 15:15:00,
2013-01-12 07:20:00,24.8,15.1,30.41,ESE,103,17.0,40.0,66,0.00,,,0.00,0.0,meteohub,2013-01-12 15:20:00,
2013-01-12 07:25:00,24.8,15.1,30.41,SSW,196,14.0,35.0,66,0.00,,,0.00,0.0,meteohub,2013-01-12 15:25:00,
2013-01-12 07:30:00,24.8,15.1,30.41,ESE,109,20.0,34.0,66,0.00,,,0.00,0.0,meteohub,2013-01-12 15:30:00,
2013-01-12 07:35:00,24.8,15.4,30.41,ESE,121,17.0,35.0,67,0.00,,,0.00,0.0,meteohub,2013-01-12 15:35:00,
2013-01-12 07:40:00,24.8,15.1,30.42,SSE,159,10.0,38.0,66,0.00,,,0.00,0.0,meteohub,2013-01-12 15:40:00,
2013-01-12 07:45:00,24.6,15.3,30.42,ESE,115,22.0,38.0,67,0.00,,,0.00,0.0,meteohub,2013-01-12 15:45:00,
2013-01-12 07:50:00,24.8,15.1,30.42,SE,129,29.0,38.0,66,0.00,,,0.00,0.0,meteohub,2013-01-12 15:50:00,
2013-01-12 07:55:00,24.8,15.4,30.42,SE,132,10.0,33.0,67,0.00,,,0.00,0.0,meteohub,2013-01-12 15:55:00,
2013-01-12 08:00:00,24.8,15.1,30.42,ESE,110,31.0,37.0,66,0.00,,,0.00,0.0,meteohub,2013-01-12 16:00:00,
2013-01-12 08:05:00,25.0,15.3,30.43,East,98,24.0,37.0,66,0.00,,,0.00,5.0,meteohub,2013-01-12 16:05:00,
2013-01-12 08:10:00,24.8,15.1,30.42,East,85,13.0,37.0,66,0.00,,,0.00,7.0,meteohub,2013-01-12 16:10:00,
2013-01-12 08:15:00,24.8,15.1,30.43,ESE,115,13.0,40.0,66,0.00,,,0.00,7.0,meteohub,2013-01-12 16:15:00,
2013-01-12 08:20:00,24.8,15.1,30.42,East,82,24.0,40.0,66,0.00,,,0.00,9.0,meteohub,2013-01-12 16:20:00,
2013-01-12 08:25:00,24.8,15.1,30.43,ENE,77,22.0,33.0,66,0.00,,,0.00,9.0,meteohub,2013-01-12 16:25:00,
2013-01-12 08:30:00,24.6,15.3,30.43,East,90,26.0,32.0,67,0.00,,,0.00,11.0,meteohub,2013-01-12 16:30:00,
2013-01-12 08:35:00,24.6,14.9,30.43,ESE,115,24.0,32.0,66,0.00,,,0.00,12.0,meteohub,2013-01-12 16:35:00,
2013-01-12 08:40:00,24.8,15.4,30.43,SSE,150,14.0,33.0,67,0.00,,,0.00,12.0,meteohub,2013-01-12 16:40:00,
2013-01-12 08:45:00,24.8,15.1,30.43,ESE,109,17.0,33.0,66,0.00,,,0.00,14.0,meteohub,2013-01-12 16:45:00,
2013-01-12 08:50:00,24.8,15.4,30.43,SSE,156,5.0,29.0,67,0.00,,,0.00,14.0,meteohub,2013-01-12 16:50:00,
2013-01-12 08:55:00,24.6,15.3,30.43,SSW,210,9.0,28.0,67,0.00,,,0.00,16.0,meteohub,2013-01-12 16:55:00,
2013-01-12 09:00:00,24.6,14.9,30.43,SSE,148,10.0,32.0,66,0.00,,,0.00,16.0,meteohub,2013-01-12 17:00:00,
2013-01-12 09:05:00,24.6,14.9,30.44,East,82,26.0,32.0,66,0.00,,,0.00,18.0,meteohub,2013-01-12 17:05:00,
2013-01-12 09:10:00,24.6,14.9,30.43,ESE,115,17.0,35.0,66,0.00,,,0.00,18.0,meteohub,2013-01-12 17:10:00,
2013-01-12 09:15:00,24.6,14.9,30.43,ESE,115,18.0,35.0,66,0.00,,,0.00,19.0,meteohub,2013-01-12 17:15:00,
2013-01-12 09:20:00,24.8,15.1,30.43,SE,146,12.0,35.0,66,0.00,,,0.00,19.0,meteohub,2013-01-12 17:20:00,
2013-01-12 09:25:00,24.8,15.1,30.43,SE,139,15.0,34.0,66,0.00,,,0.00,19.0,meteohub,2013-01-12 17:25:00,
2013-01-12 09:30:00,24.8,15.1,30.43,ESE,107,16.0,34.0,66,0.00,,,0.00,19.0,meteohub,2013-01-12 17:30:00,
2013-01-12 09:36:00,24.8,15.1,30.44,East,91,16.0,34.0,66,0.00,,,0.00,21.0,meteohub,2013-01-12 17:36:00,
2013-01-12 09:41:00,25.0,15.3,30.43,East,96,27.0,36.0,66,0.00,,,0.00,21.0,meteohub,2013-01-12 17:41:00,
2013-01-12 09:46:00,25.2,15.4,30.43,ESE,106,12.0,36.0,66,0.00,,,0.00,21.0,meteohub,2013-01-12 17:46:00,
2013-01-12 09:51:00,25.2,15.4,30.43,ESE,119,20.0,36.0,66,0.00,,,0.00,21.0,meteohub,2013-01-12 17:51:00,
2013-01-12 09:56:00,25.3,15.3,30.43,ESE,123,17.0,36.0,65,0.00,,,0.00,23.0,meteohub,2013-01-12 17:56:00,
2013-01-12 10:01:00,25.3,15.3,30.43,ESE,106,29.0,36.0,65,0.00,,,0.00,23.0,meteohub,2013-01-12 18:01:00,
2013-01-12 10:06:00,25.3,15.3,30.43,East,88,20.0,33.0,65,0.00,,,0.00,23.0,meteohub,2013-01-12 18:06:00,
2013-01-12 10:11:00,25.5,15.1,30.43,ESE,104,12.0,36.0,64,0.00,,,0.00,23.0,meteohub,2013-01-12 18:11:00,
2013-01-12 10:16:00,25.5,15.4,30.43,ESE,109,11.0,39.0,65,0.00,,,0.00,25.0,meteohub,2013-01-12 18:16:00,
2013-01-12 10:21:00,25.5,15.1,30.43,SE,127,13.0,39.0,64,0.00,,,0.00,25.0,meteohub,2013-01-12 18:21:00,
2013-01-12 10:26:00,25.7,15.6,30.43,SSE,151,10.0,39.0,65,0.00,,,0.00,26.0,meteohub,2013-01-12 18:26:00,
2013-01-12 10:31:00,25.9,15.4,30.43,ESE,112,25.0,33.0,64,0.00,,,0.00,26.0,meteohub,2013-01-12 18:31:00,
2013-01-12 10:36:00,25.9,15.4,30.43,East,91,28.0,33.0,64,0.00,,,0.00,28.0,meteohub,2013-01-12 18:36:00,
2013-01-12 10:41:00,26.1,15.6,30.43,ESE,104,23.0,36.0,64,0.00,,,0.00,28.0,meteohub,2013-01-12 18:41:00,
2013-01-12 10:46:00,26.1,15.3,30.43,ESE,107,27.0,36.0,63,0.00,,,0.00,30.0,meteohub,2013-01-12 18:46:00,
2013-01-12 10:51:00,26.1,15.3,30.43,ESE,119,24.0,36.0,63,0.00,,,0.00,30.0,meteohub,2013-01-12 18:51:00,
2013-01-12 10:56:00,26.2,15.1,30.42,ESE,117,13.0,42.0,62,0.00,,,0.00,32.0,meteohub,2013-01-12 18:56:00,
2013-01-12 11:01:00,26.4,15.1,30.43,East,90,14.0,42.0,62,0.00,,,0.00,32.0,meteohub,2013-01-12 19:01:00,
2013-01-12 11:06:00,26.6,15.3,30.43,SE,125,16.0,42.0,62,0.00,,,0.00,301.0,meteohub,2013-01-12 19:06:00,
2013-01-12 11:11:00,27.0,15.6,30.43,SE,134,11.0,37.0,62,0.00,,,0.00,308.0,meteohub,2013-01-12 19:11:00,
2013-01-12 11:16:00,27.0,15.3,30.43,East,85,16.0,38.0,61,0.00,,,0.00,313.0,meteohub,2013-01-12 19:16:00,
2013-01-12 11:21:00,27.1,15.1,30.43,ESE,123,29.0,38.0,60,0.00,,,0.00,318.0,meteohub,2013-01-12 19:21:00,
2013-01-12 11:26:00,27.3,15.3,30.44,ENE,71,20.0,38.0,60,0.00,,,0.00,318.0,meteohub,2013-01-12 19:26:00,
2013-01-12 11:31:00,27.7,15.3,30.43,East,82,31.0,38.0,59,0.00,,,0.00,322.0,meteohub,2013-01-12 19:31:00,
2013-01-12 11:36:00,27.7,16.0,30.42,ENE,78,15.0,38.0,61,0.00,,,0.00,325.0,meteohub,2013-01-12 19:36:00,
2013-01-12 11:41:00,27.9,16.2,30.43,ESE,109,24.0,35.0,61,0.00,,,0.00,329.0,meteohub,2013-01-12 19:41:00,
2013-01-12 11:46:00,27.9,15.8,30.42,ESE,110,23.0,38.0,60,0.00,,,0.00,330.0,meteohub,2013-01-12 19:46:00,
2013-01-12 11:51:00,28.2,15.8,30.41,East,90,6.0,38.0,59,0.00,,,0.00,330.0,meteohub,2013-01-12 19:51:00,
2013-01-12 11:56:00,28.4,16.0,30.42,ENE,78,14.0,34.0,59,0.00,,,0.00,336.0,meteohub,2013-01-12 19:56:00,
2013-01-12 12:01:00,28.4,16.3,30.41,ESE,111,22.0,34.0,60,0.00,,,0.00,74.0,meteohub,2013-01-12 20:01:00,
2013-01-12 12:06:00,28.6,16.9,30.41,ESE,103,28.0,33.0,61,0.00,,,0.00,33.0,meteohub,2013-01-12 20:06:00,
2013-01-12 12:12:00,28.6,16.2,30.41,East,84,12.0,33.0,59,0.00,,,0.00,32.0,meteohub,2013-01-12 20:12:00,
2013-01-12 12:17:00,28.8,16.2,30.41,ESE,107,20.0,33.0,59,0.00,,,0.00,32.0,meteohub,2013-01-12 20:17:00,
2013-01-12 12:22:00,28.8,16.2,30.40,ESE,116,29.0,33.0,59,0.00,,,0.00,32.0,meteohub,2013-01-12 20:22:00,
2013-01-12 12:27:00,28.8,16.2,30.40,SE,129,15.0,32.0,59,0.00,,,0.00,32.0,meteohub,2013-01-12 20:27:00,
2013-01-12 12:32:00,28.8,16.2,30.40,ESE,119,26.0,34.0,59,0.00,,,0.00,32.0,meteohub,2013-01-12 20:32:00,
2013-01-12 12:37:00,29.1,16.2,30.40,East,88,32.0,34.0,58,0.00,,,0.00,32.0,meteohub,2013-01-12 20:37:00,
2013-01-12 12:42:00,29.3,16.0,30.40,ESE,115,18.0,34.0,57,0.00,,,0.00,32.0,meteohub,2013-01-12 20:42:00,
2013-01-12 12:47:00,29.5,16.5,30.40,SE,144,16.0,36.0,58,0.00,,,0.00,32.0,meteohub,2013-01-12 20:47:00,
2013-01-12 12:52:00,29.5,16.5,30.40,ESE,113,21.0,36.0,58,0.00,,,0.00,32.0,meteohub,2013-01-12 20:52:00,
2013-01-12 12:57:00,29.7,16.3,30.40,East,85,24.0,36.0,57,0.00,,,0.00,32.0,meteohub,2013-01-12 20:57:00,
2013-01-12 13:02:00,29.7,16.3,30.40,ESE,123,9.0,40.0,57,0.00,,,0.00,32.0,meteohub,2013-01-12 21:02:00,
2013-01-12 13:07:00,29.8,16.5,30.40,ESE,102,23.0,40.0,57,0.00,,,0.00,32.0,meteohub,2013-01-12 21:07:00,
2013-01-12 13:12:00,30.0,16.2,30.40,SE,136,16.0,40.0,56,0.00,,,0.00,32.0,meteohub,2013-01-12 21:12:00,
2013-01-12 13:17:00,30.0,16.2,30.41,SE,126,18.0,33.0,56,0.00,,,0.00,33.0,meteohub,2013-01-12 21:17:00,
2013-01-12 13:22:00,30.0,16.2,30.41,ESE,119,19.0,33.0,56,0.00,,,0.00,33.0,meteohub,2013-01-12 21:22:00,
2013-01-12 13:27:00,30.4,17.8,30.41,ESE,105,15.0,33.0,59,0.00,,,0.00,33.0,meteohub,2013-01-12 21:27:00,
2013-01-12 13:32:00,30.6,16.7,30.40,SE,128,24.0,33.0,56,0.00,,,0.00,42.0,meteohub,2013-01-12 21:32:00,
2013-01-12 13:37:00,30.7,16.9,30.41,East,81,18.0,33.0,56,0.00,,,0.00,51.0,meteohub,2013-01-12 21:37:00,
2013-01-12 13:42:00,30.7,17.2,30.41,ESE,109,17.0,34.0,57,0.00,,,0.00,32.0,meteohub,2013-01-12 21:42:00,
2013-01-12 13:47:00,30.7,16.9,30.41,ESE,121,15.0,34.0,56,0.00,,,0.00,32.0,meteohub,2013-01-12 21:47:00,
2013-01-12 13:52:00,30.9,17.1,30.41,ENE,67,25.0,29.0,56,0.00,,,0.00,32.0,meteohub,2013-01-12 21:52:00,
2013-01-12 13:57:00,30.9,17.1,30.41,East,98,11.0,28.0,56,0.00,,,0.00,33.0,meteohub,2013-01-12 21:57:00,
2013-01-12 14:02:00,31.3,17.1,30.41,East,88,17.0,29.0,55,0.00,,,0.00,244.0,meteohub,2013-01-12 22:02:00,
2013-01-12 14:07:00,31.3,17.8,30.41,ENE,67,12.0,30.0,57,0.00,,,0.00,262.0,meteohub,2013-01-12 22:07:00,
2013-01-12 14:12:00,31.5,17.2,30.41,ENE,77,18.0,30.0,55,0.00,,,0.00,255.0,meteohub,2013-01-12 22:12:00,
2013-01-12 14:17:00,31.6,17.2,30.40,East,81,18.0,30.0,55,0.00,,,0.00,248.0,meteohub,2013-01-12 22:17:00,
2013-01-12 14:23:00,31.6,17.2,30.40,SE,129,16.0,28.0,55,0.00,,,0.00,241.0,meteohub,2013-01-12 22:23:00,
2013-01-12 14:28:00,31.8,17.4,30.40,ENE,74,15.0,28.0,55,0.00,,,0.00,232.0,meteohub,2013-01-12 22:28:00,
2013-01-12 14:33:00,31.8,17.4,30.40,East,94,13.0,29.0,55,0.00,,,0.00,225.0,meteohub,2013-01-12 22:33:00,
2013-01-12 14:38:00,31.8,17.4,30.40,ESE,106,19.0,29.0,55,0.00,,,0.00,218.0,meteohub,2013-01-12 22:38:00,
2013-01-12 14:43:00,31.8,18.0,30.40,ENE,76,20.0,31.0,56,0.00,,,0.00,207.0,meteohub,2013-01-12 22:43:00,
2013-01-12 14:48:00,31.8,18.0,30.41,ESE,122,16.0,31.0,56,0.00,,,0.00,199.0,meteohub,2013-01-12 22:48:00,
2013-01-12 14:53:00,31.8,18.0,30.41,East,85,13.0,31.0,56,0.00,,,0.00,192.0,meteohub,2013-01-12 22:53:00,
2013-01-12 14:58:00,31.8,18.0,30.42,ENE,71,5.0,25.0,56,0.00,,,0.00,183.0,meteohub,2013-01-12 22:58:00,
2013-01-12 15:03:00,31.8,18.0,30.41,ESE,108,21.0,25.0,56,0.00,,,0.00,176.0,meteohub,2013-01-12 23:03:00,
2013-01-12 15:08:00,31.6,18.1,30.41,SE,130,12.0,28.0,57,0.00,,,0.00,167.0,meteohub,2013-01-12 23:08:00,
2013-01-12 15:13:00,31.8,18.0,30.41,ESE,117,7.0,28.0,56,0.00,,,0.00,156.0,meteohub,2013-01-12 23:13:00,
2013-01-12 15:18:00,31.6,18.1,30.41,ESE,115,20.0,28.0,57,0.00,,,0.00,148.0,meteohub,2013-01-12 23:18:00,
2013-01-12 15:23:00,31.6,18.5,30.41,SE,125,10.0,29.0,58,0.00,,,0.00,135.0,meteohub,2013-01-12 23:23:00,
2013-01-12 15:28:00,31.6,18.1,30.41,ESE,117,16.0,29.0,57,0.00,,,0.00,125.0,meteohub,2013-01-12 23:28:00,
2013-01-12 15:33:00,31.5,18.3,30.41,ESE,115,11.0,29.0,58,0.00,,,0.00,111.0,meteohub,2013-01-12 23:33:00,
2013-01-12 15:38:00,31.5,18.3,30.41,ENE,74,15.0,29.0,58,0.00,,,0.00,56.0,meteohub,2013-01-12 23:38:00,
2013-01-12 15:43:00,31.3,18.7,30.42,East,101,17.0,29.0,59,0.00,,,0.00,69.0,meteohub,2013-01-12 23:43:00,
2013-01-12 15:48:00,31.3,18.7,30.41,East,96,22.0,25.0,59,0.00,,,0.00,33.0,meteohub,2013-01-12 23:48:00,
2013-01-12 15:54:00,30.9,18.3,30.41,East,96,17.0,25.0,59,0.00,,,0.00,25.0,meteohub,2013-01-12 23:54:00,
2013-01-12 15:59:00,30.9,18.3,30.40,SE,129,17.0,30.0,59,0.00,,,0.00,21.0,meteohub,2013-01-12 23:59:00,
2013-01-12 16:04:00,30.9,18.3,30.40,ESE,106,17.0,30.0,59,0.00,,,0.00,18.0,meteohub,2013-01-13 00:04:00,
2013-01-12 16:09:00,30.7,18.1,30.41,SE,130,14.0,30.0,59,0.00,,,0.00,12.0,meteohub,2013-01-13 00:09:00,
2013-01-12 16:14:00,30.6,18.7,30.41,SE,126,13.0,25.0,61,0.00,,,0.00,11.0,meteohub,2013-01-13 00:14:00,
2013-01-12 16:19:00,30.4,18.1,30.40,East,86,18.0,25.0,60,0.00,,,0.00,7.0,meteohub,2013-01-13 00:19:00,
2013-01-12 16:24:00,30.4,18.5,30.40,SSE,165,7.0,25.0,61,0.00,,,0.00,5.0,meteohub,2013-01-13 00:24:00,
2013-01-12 16:29:00,30.4,18.5,30.40,SE,130,5.0,28.0,61,0.00,,,0.00,0.0,meteohub,2013-01-13 00:29:00,
2013-01-12 16:34:00,30.0,18.1,30.40,SE,138,8.0,28.0,61,0.00,,,0.00,0.0,meteohub,2013-01-13 00:34:00,
2013-01-12 16:39:00,30.0,18.1,30.40,East,100,11.0,28.0,61,0.00,,,0.00,0.0,meteohub,2013-01-13 00:39:00,
2013-01-12 16:44:00,30.0,18.1,30.41,ESE,108,19.0,25.0,61,0.00,,,0.00,0.0,meteohub,2013-01-13 00:44:00,
2013-01-12 16:49:00,30.0,18.1,30.41,SE,130,7.0,25.0,61,0.00,,,0.00,0.0,meteohub,2013-01-13 00:49:00,
2013-01-12 16:54:00,30.0,18.1,30.41,SE,124,3.0,22.0,61,0.00,,,0.00,0.0,meteohub,2013-01-13 00:54:00,
2013-01-12 16:59:00,30.0,18.1,30.42,ESE,105,2.0,22.0,61,0.00,,,0.00,0.0,meteohub,2013-01-13 00:59:00,
2013-01-12 17:04:00,29.7,18.7,30.42,East,98,13.0,22.0,63,0.00,,,0.00,0.0,meteohub,2013-01-13 01:04:00,
2013-01-12 17:10:00,29.7,18.3,30.43,SSE,159,5.0,18.0,62,0.00,,,0.00,0.0,meteohub,2013-01-13 01:10:00,
2013-01-12 17:15:00,29.7,18.7,30.43,SSE,147,6.0,17.0,63,0.00,,,0.00,0.0,meteohub,2013-01-13 01:15:00,
2013-01-12 17:20:00,29.5,18.9,30.43,ESE,112,11.0,17.0,64,0.00,,,0.00,0.0,meteohub,2013-01-13 01:20:00,
2013-01-12 17:25:00,29.3,19.0,30.43,ESE,121,10.0,17.0,65,0.00,,,0.00,0.0,meteohub,2013-01-13 01:25:00,
2013-01-12 17:30:00,29.1,19.2,30.43,ESE,114,10.0,17.0,66,0.00,,,0.00,0.0,meteohub,2013-01-13 01:30:00,
2013-01-12 17:35:00,28.9,19.0,30.43,SE,132,9.0,16.0,66,0.00,,,0.00,0.0,meteohub,2013-01-13 01:35:00,
2013-01-12 17:40:00,29.1,18.9,30.43,ESE,114,15.0,20.0,65,0.00,,,0.00,0.0,meteohub,2013-01-13 01:40:00,
2013-01-12 17:45:00,29.1,18.5,30.43,ESE,109,7.0,20.0,64,0.00,,,0.00,0.0,meteohub,2013-01-13 01:45:00,
2013-01-12 17:50:00,29.3,18.7,30.44,NNE,26,3.0,26.0,64,0.00,,,0.00,0.0,meteohub,2013-01-13 01:50:00,
2013-01-12 17:55:00,29.1,18.9,30.43,East,82,11.0,26.0,65,0.00,,,0.00,0.0,meteohub,2013-01-13 01:55:00,
2013-01-12 18:00:00,29.3,18.7,30.43,ENE,73,4.0,26.0,64,0.00,,,0.00,0.0,meteohub,2013-01-13 02:00:00,
2013-01-12 18:05:00,29.5,18.9,30.43,East,86,18.0,26.0,64,0.00,,,0.00,0.0,meteohub,2013-01-13 02:05:00,
2013-01-12 18:10:00,29.5,18.5,30.44,ESE,109,7.0,26.0,63,0.00,,,0.00,0.0,meteohub,2013-01-13 02:10:00,
2013-01-12 18:15:00,29.5,18.5,30.43,SE,144,7.0,26.0,63,0.00,,,0.00,0.0,meteohub,2013-01-13 02:15:00,
2013-01-12 18:20:00,29.5,18.9,30.44,SSW,201,5.0,24.0,64,0.00,,,0.00,0.0,meteohub,2013-01-13 02:20:00,
2013-01-12 18:25:00,29.5,18.9,30.43,ESE,123,14.0,24.0,64,0.00,,,0.00,0.0,meteohub,2013-01-13 02:25:00,
2013-01-12 18:30:00,29.5,18.9,30.44,SE,144,22.0,24.0,64,0.00,,,0.00,0.0,meteohub,2013-01-13 02:30:00,
2013-01-12 18:36:00,29.5,18.5,30.44,SE,138,13.0,23.0,63,0.00,,,0.00,0.0,meteohub,2013-01-13 02:36:00,
2013-01-12 18:41:00,29.5,18.9,30.44,SE,134,12.0,29.0,64,0.00,,,0.00,0.0,meteohub,2013-01-13 02:41:00,
2013-01-12 18:46:00,29.3,18.7,30.44,SE,138,12.0,29.0,64,0.00,,,0.00,0.0,meteohub,2013-01-13 02:46:00,
2013-01-12 18:51:00,29.1,18.5,30.44,West,263,2.0,29.0,64,0.00,,,0.00,0.0,meteohub,2013-01-13 02:51:00,
2013-01-12 18:56:00,28.8,18.9,30.44,East,88,11.0,20.0,66,0.00,,,0.00,0.0,meteohub,2013-01-13 02:56:00,
2013-01-12 19:01:00,28.8,18.9,30.45,East,100,1.0,19.0,66,0.00,,,0.00,0.0,meteohub,2013-01-13 03:01:00,
2013-01-12 19:06:00,28.8,18.9,30.45,South,176,3.0,23.0,66,0.00,,,0.00,0.0,meteohub,2013-01-13 03:06:00,
2013-01-12 19:11:00,28.6,19.4,30.45,SE,144,10.0,23.0,68,0.00,,,0.00,0.0,meteohub,2013-01-13 03:11:00,
2013-01-12 19:16:00,28.6,19.0,30.44,East,100,7.0,20.0,67,0.00,,,0.00,0.0,meteohub,2013-01-13 03:16:00,
2013-01-12 19:21:00,28.4,18.9,30.44,SE,131,16.0,21.0,67,0.00,,,0.00,0.0,meteohub,2013-01-13 03:21:00,
2013-01-12 19:26:00,28.6,18.7,30.45,SE,129,12.0,21.0,66,0.00,,,0.00,0.0,meteohub,2013-01-13 03:26:00,
2013-01-12 19:31:00,28.6,19.0,30.45,ESE,111,6.0,23.0,67,0.00,,,0.00,0.0,meteohub,2013-01-13 03:31:00,
2013-01-12 19:36:00,28.4,19.2,30.45,SE,139,6.0,23.0,68,0.00,,,0.00,0.0,meteohub,2013-01-13 03:36:00,
2013-01-12 19:41:00,28.2,18.7,30.44,SW,225,3.0,20.0,67,0.00,,,0.00,0.0,meteohub,2013-01-13 03:41:00,
2013-01-12 19:46:00,28.2,18.7,30.45,ESE,119,7.0,16.0,67,0.00,,,0.00,0.0,meteohub,2013-01-13 03:46:00,
2013-01-12 19:51:00,28.2,18.7,30.45,South,173,9.0,15.0,67,0.00,,,0.00,0.0,meteohub,2013-01-13 03:51:00,
2013-01-12 19:56:00,28.0,18.9,30.45,ESE,122,8.0,15.0,68,0.00,,,0.00,0.0,meteohub,2013-01-13 03:56:00,
2013-01-12 20:01:00,28.0,18.9,30.44,ESE,121,3.0,15.0,68,0.00,,,0.00,0.0,meteohub,2013-01-13 04:01:00,
2013-01-12 20:06:00,28.0,18.9,30.44,SE,124,13.0,15.0,68,0.00,,,0.00,0.0,meteohub,2013-01-13 04:06:00,
2013-01-12 20:11:00,27.9,19.0,30.44,SE,146,10.0,18.0,69,0.00,,,0.00,0.0,meteohub,2013-01-13 04:11:00,
2013-01-12 20:16:00,27.9,18.7,30.44,SSW,195,3.0,18.0,68,0.00,,,0.00,0.0,meteohub,2013-01-13 04:16:00,
2013-01-12 20:21:00,27.9,18.7,30.44,ENE,78,4.0,18.0,68,0.00,,,0.00,0.0,meteohub,2013-01-13 04:21:00,
2013-01-12 20:26:00,27.9,18.3,30.44,East,100,6.0,19.0,67,0.00,,,0.00,0.0,meteohub,2013-01-13 04:26:00,
2013-01-12 20:31:00,27.9,18.3,30.44,SE,126,8.0,19.0,67,0.00,,,0.00,0.0,meteohub,2013-01-13 04:31:00,
2013-01-12 20:36:00,27.5,19.0,30.44,SSW,195,6.0,19.0,70,0.00,,,0.00,0.0,meteohub,2013-01-13 04:36:00,
2013-01-12 20:42:00,27.7,18.5,30.45,ESE,107,3.0,17.0,68,0.00,,,0.00,0.0,meteohub,2013-01-13 04:42:00,
2013-01-12 20:47:00,27.7,18.9,30.44,SSE,150,4.0,19.0,69,0.00,,,0.00,0.0,meteohub,2013-01-13 04:47:00,
2013-01-12 20:52:00,27.5,18.7,30.44,ENE,63,3.0,19.0,69,0.00,,,0.00,0.0,meteohub,2013-01-13 04:52:00,
2013-01-12 20:57:00,27.3,18.5,30.45,NE,54,3.0,14.0,69,0.00,,,0.00,0.0,meteohub,2013-01-13 04:57:00,
2013-01-12 21:00:00,27.3,19.2,30.45,East,96,2.0,14.0,71,0.00,,,0.00,0.0,meteohub,2013-01-13 05:00:00,
2013-01-12 21:02:00,27.3,18.9,30.44,East,94,0.0,12.0,70,0.00,,,0.00,0.0,meteohub,2013-01-13 05:02:00,
2013-01-12 21:07:00,27.3,19.6,30.45,North,11,5.0,12.0,72,0.00,,,0.00,0.0,meteohub,2013-01-13 05:07:00,
2013-01-12 21:12:00,27.0,19.2,30.45,East,90,3.0,12.0,72,0.00,,,0.00,0.0,meteohub,2013-01-13 05:12:00,
2013-01-12 21:17:00,26.8,19.6,30.45,ESE,110,5.0,11.0,74,0.00,,,0.00,0.0,meteohub,2013-01-13 05:17:00,
2013-01-12 21:19:00,27.0,18.1,30.45,ESE,119,7.0,11.0,69,0.00,,,0.00,0.0,meteohub,2013-01-13 05:19:00,
2013-01-12 21:24:00,27.3,18.9,30.45,South,177,5.0,24.0,70,0.00,,,0.00,0.0,meteohub,2013-01-13 05:24:00,
2013-01-12 21:29:00,27.3,18.5,30.45,SE,132,12.0,24.0,69,0.00,,,0.00,0.0,meteohub,2013-01-13 05:29:00,
2013-01-12 21:34:00,27.3,18.5,30.45,ESE,119,11.0,24.0,69,0.00,,,0.00,0.0,meteohub,2013-01-13 05:34:00,
2013-01-12 21:39:00,27.3,18.1,30.45,SE,125,14.0,24.0,68,0.00,,,0.00,0.0,meteohub,2013-01-13 05:39:00,
2013-01-12 21:44:00,27.5,18.3,30.45,ESE,107,16.0,24.0,68,0.00,,,0.00,0.0,meteohub,2013-01-13 05:44:00,
2013-01-12 21:49:00,27.5,18.3,30.45,SSE,151,10.0,24.0,68,0.00,,,0.00,0.0,meteohub,2013-01-13 05:49:00,
2013-01-12 21:54:00,27.1,18.3,30.46,ESE,119,17.0,24.0,69,0.00,,,0.00,0.0,meteohub,2013-01-13 05:54:00,
2013-01-12 21:59:00,27.1,18.3,30.46,SE,141,1.0,25.0,69,0.00,,,0.00,0.0,meteohub,2013-01-13 05:59:00,
2013-01-12 22:05:00,27.1,18.3,30.45,ESE,118,20.0,25.0,69,0.00,,,0.00,0.0,meteohub,2013-01-13 06:05:00,
2013-01-12 22:10:00,27.0,18.5,30.45,ESE,123,14.0,26.0,70,0.00,,,0.00,0.0,meteohub,2013-01-13 06:10:00,
2013-01-12 22:15:00,27.0,18.5,30.45,ESE,109,7.0,26.0,70,0.00,,,0.00,0.0,meteohub,2013-01-13 06:15:00,
2013-01-12 22:20:00,27.1,18.0,30.45,ESE,123,10.0,26.0,68,0.00,,,0.00,0.0,meteohub,2013-01-13 06:20:00,
2013-01-12 22:25:00,27.1,18.3,30.46,SSW,198,5.0,22.0,69,0.00,,,0.00,0.0,meteohub,2013-01-13 06:25:00,
2013-01-12 22:30:00,27.1,18.0,30.47,East,82,1.0,22.0,68,0.00,,,0.00,0.0,meteohub,2013-01-13 06:30:00,
2013-01-12 22:35:00,27.1,18.7,30.47,SSE,154,3.0,22.0,70,0.00,,,0.00,0.0,meteohub,2013-01-13 06:35:00,
2013-01-12 22:40:00,27.0,18.5,30.47,ESE,110,6.0,16.0,70,0.00,,,0.00,0.0,meteohub,2013-01-13 06:40:00,
2013-01-12 22:45:00,27.1,18.0,30.47,SE,146,9.0,14.0,68,0.00,,,0.00,0.0,meteohub,2013-01-13 06:45:00,
2013-01-12 22:50:00,27.0,18.1,30.48,ENE,77,17.0,21.0,69,0.00,,,0.00,0.0,meteohub,2013-01-13 06:50:00,
2013-01-12 22:55:00,27.1,18.0,30.48,SE,146,15.0,26.0,68,0.00,,,0.00,0.0,meteohub,2013-01-13 06:55:00,
2013-01-12 23:00:00,27.1,18.3,30.48,ESE,115,5.0,30.0,69,0.00,,,0.00,0.0,meteohub,2013-01-13 07:00:00,
2013-01-12 23:05:00,27.1,18.0,30.48,ESE,109,14.0,30.0,68,0.00,,,0.00,0.0,meteohub,2013-01-13 07:05:00,
2013-01-12 23:10:00,27.0,18.5,30.48,North,0,7.0,30.0,70,0.00,,,0.00,0.0,meteohub,2013-01-13 07:10:00,
2013-01-12 23:15:00,27.0,18.1,30.48,SE,134,23.0,25.0,69,0.00,,,0.00,0.0,meteohub,2013-01-13 07:15:00,
2013-01-12 23:20:00,27.0,18.5,30.48,SE,142,18.0,27.0,70,0.00,,,0.00,0.0,meteohub,2013-01-13 07:20:00,
2013-01-12 23:25:00,27.0,18.1,30.48,SE,144,18.0,27.0,69,0.00,,,0.00,0.0,meteohub,2013-01-13 07:25:00,
2013-01-12 23:30:00,27.0,18.1,30.47,East,88,14.0,26.0,69,0.00,,,0.00,0.0,meteohub,2013-01-13 07:30:00,
2013-01-12 23:35:00,26.8,18.3,30.47,SE,130,10.0,28.0,70,0.00,,,0.00,0.0,meteohub,2013-01-13 07:35:00,
2013-01-12 23:40:00,26.8,18.3,30.47,SSW,208,14.0,28.0,70,0.00,,,0.00,0.0,meteohub,2013-01-13 07:40:00,
2013-01-12 23:45:00,26.6,18.1,30.48,ENE,78,2.0,22.0,70,0.00,,,0.00,0.0,meteohub,2013-01-13 07:45:00,
2013-01-12 23:50:00,26.6,18.1,30.48,ESE,104,13.0,22.0,70,0.00,,,0.00,0.0,meteohub,2013-01-13 07:50:00,
2013-01-12 23:55:00,26.6,18.1,30.48,South,176,6.0,26.0,70,0.00,,,0.00,0.0,meteohub,2013-01-13 07:55:00,